Select another period ( hide this area )

Units Period Custom range Directly to
Metric English Both
Daily Weekly Monthly Yearly
use both date-selectors for a custom range
previous Day
With this date

WeatherUnderground graphs for this period ( click here ) Loading the graph can take up to a minute!


Daily Summary for Wednesday Jan 22 2020
Time Temp. ( °C ) Dew pt. ( °C ) Wind ( km/h ) From Gust ( km/h ) Pressure ( hPa ) Humid.( % ) Rainrate ( cm )
High4,4 3,1 8,0 East ( 20/44 ) 10,0 1040,6 98 0,25
Average-0,1 -0,5 0,2 Kalm #167/187 1,0 1038,9 97 0,50
Low-2,2 -2,6 -   0,0 1037,3 90 -
Daily Tabular details for Wednesday Jan 22 2020
Time Temp. ( °C ) Dew pt. ( °C ) Wind ( km/h ) From Gust ( km/h ) Pressure ( hPa ) Humid.( % ) Rainrate ( cm )
00:04 -1,6 -2,0   Kalm 2,0 1040,3 97 -
00:09 -1,6 -2,0   Kalm 2,0 1040,3 97 -
00:14 -1,6 -2,0 1,0 West 2,0 1040,0 97 -
00:19 -1,5 -1,9   Kalm 2,0 1040,0 97 -
00:24 -1,6 -2,0 1,0 West 2,0 1040,3 97 -
00:29 -1,7 -2,1   Kalm 2,0 1040,6 97 -
00:34 -1,7 -2,1   Kalm 2,0 1040,3 97 -
00:39 -1,7 -2,1   Kalm 2,0 1040,3 97 -
00:44 -1,7 -2,1 1,0 ESE 3,0 1040,3 97 -
00:49 -1,7 -2,1 3,0 North 6,0 1040,6 97 -
00:54 -1,8 -2,2 6,0 East 8,0 1040,6 97 -
00:59 -2,1 -2,5 8,0 ENE 10,0 1040,6 97 -
01:04 -2,1 -2,5   Kalm 6,0 1040,6 97 -
01:09 -2,2 -2,6   Kalm 3,0 1040,6 97 -
01:14 -2,1 -2,5 3,0 East 10,0 1040,6 97 -
01:19 -2,2 -2,6 3,0 East 5,0 1040,6 97 -
01:24 -2,1 -2,5 3,0 East 6,0 1040,3 97 -
01:29 -2,1 -2,5   Kalm 6,0 1040,3 97 -
01:34 -2,1 -2,5 1,0 ENE 2,0 1040,3 97 -
01:39 -2,1 -2,5 1,0 West 3,0 1040,3 97 -
01:44 -2,2 -2,6 3,0 East 3,0 1040,0 97 -
01:49 -2,2 -2,6   Kalm 2,0 1040,0 97 -
01:54 -2,1 -2,5   Kalm   1040,0 97 -
01:59 -2,0 -2,4   Kalm 2,0 1040,0 97 -
02:04 -1,9 -2,3   Kalm   1040,0 97 -
02:09 -1,8 -2,2   Kalm   1040,0 97 -
02:14 -1,8 -2,2   Kalm   1040,0 97 -
02:19 -1,7 -2,1 2,0 WNW 2,0 1040,0 97 -
02:24 -1,7 -2,0   Kalm 2,0 1040,0 98 -
02:29 -1,7 -2,1   Kalm 2,0 1040,0 97 -
02:34 -1,6 -2,0   Kalm   1040,0 97 -
02:39 -1,6 -2,0   Kalm   1040,0 97 -
02:44 -1,6 -2,0   Kalm   1040,0 97 -
02:49 -1,5 -1,9   Kalm   1040,0 97 -
02:54 -1,4 -1,8   Kalm   1040,0 97 -
02:59 -1,3 -1,6   Kalm   1040,0 98 -
03:04 -1,3 -1,6   Kalm   1040,0 98 -
03:09 -1,2 -1,5   Kalm 2,0 1040,0 98 -
03:14 -1,2 -1,5   Kalm 2,0 1039,6 98 -
03:19 -1,1 -1,4   Kalm   1039,6 98 -
03:24 -1,1 -1,4   Kalm   1039,6 98 -
03:29 -1,1 -1,4   Kalm   1039,3 98 -
03:34 -1,0 -1,3   Kalm   1039,3 98 -
03:39 -1,0 -1,3   Kalm   1039,3 98 -
03:44 -1,0 -1,3   Kalm   1039,6 98 -
03:49 -1,1 -1,5   Kalm   1039,6 97 -
03:54 -1,1 -1,5   Kalm   1039,6 97 -
03:59 -1,1 -1,5   Kalm   1039,6 97 -
04:04 -1,1 -1,5   Kalm   1039,3 97 -
04:09 -1,1 -1,5   Kalm   1039,3 97 -
04:14 -1,0 -1,4   Kalm   1039,3 97 -
04:19 -1,0 -1,4   Kalm   1039,3 97 -
04:24 -1,0 -1,4   Kalm   1039,3 97 -
04:29 -1,0 -1,4   Kalm   1038,9 97 -
04:34 -0,9 -1,3   Kalm   1039,3 97 -
04:39 -1,0 -1,4   Kalm   1039,3 97 -
04:44 -1,1 -1,5   Kalm   1039,3 97 -
04:49 -1,0 -1,4   Kalm   1038,9 97 -
04:54 -0,9 -1,3   Kalm   1038,9 97 -
04:59 -0,9 -1,2   Kalm   1038,9 98 -
05:04 -0,9 -1,2   Kalm   1038,9 98 -
05:09 -0,9 -1,2   Kalm   1038,9 98 -
05:14 -0,9 -1,2   Kalm   1038,6 98 -
05:19 -0,8 -1,1   Kalm   1038,9 98 -
05:24 -0,8 -1,1   Kalm   1038,9 98 -
05:28 -0,8 -1,1   Kalm   1038,9 98 -
05:34 -0,9 -1,3   Kalm   1038,9 97 -
05:39 -0,9 -1,3   Kalm   1038,9 97 -
05:44 -0,9 -1,3   Kalm   1038,9 97 -
05:49 -1,0 -1,4   Kalm   1038,9 97 -
05:54 -1,0 -1,4   Kalm 3,0 1038,9 97 -
05:59 -1,1 -1,5   Kalm 3,0 1038,9 97 -
06:04 -1,1 -1,5   Kalm   1038,6 97 -
06:09 -1,1 -1,5   Kalm   1038,6 97 -
06:14 -1,1 -1,5   Kalm   1038,6 97 -
06:19 -1,1 -1,5   Kalm   1038,6 97 -
06:24 -1,1 -1,5   Kalm   1038,6 97 -
06:29 -1,1 -1,5   Kalm   1038,6 97 -
06:34 -1,1 -1,4   Kalm   1038,3 98 -
06:39 -1,1 -1,4   Kalm   1038,3 98 -
06:44 -1,1 -1,5   Kalm   1038,3 97 -
06:49 -1,2 -1,6   Kalm   1038,3 97 -
06:54 -1,2 -1,6   Kalm   1037,9 97 -
06:59 -1,1 -1,5   Kalm 2,0 1037,9 97 -
07:03 -1,1 -1,4   Kalm 2,0 1038,3 98 -
07:09 -1,1 -1,4   Kalm 2,0 1038,3 98 -
07:14 -1,1 -1,4   Kalm   1038,3 98 -
07:19 -1,1 -1,4   Kalm 2,0 1038,3 98 -
07:24 -1,1 -1,4   Kalm 2,0 1038,3 98 -
07:29 -1,1 -1,4   Kalm 2,0 1038,3 98 -
07:34 -1,1 -1,4   Kalm 2,0 1038,3 98 -
07:39 -1,1 -1,5   Kalm 2,0 1038,3 97 -
07:44 -1,2 -1,6   Kalm   1038,3 97 -
07:49 -1,2 -1,6   Kalm   1038,3 97 -
07:54 -1,1 -1,4   Kalm   1038,3 98 -
07:59 -1,1 -1,4   Kalm   1038,3 98 -
08:04 -1,1 -1,4   Kalm   1037,9 98 -
08:09 -1,1 -1,4   Kalm   1038,3 98 -
08:14 -1,1 -1,4   Kalm 3,0 1038,3 98 -
08:19 -1,1 -1,4   Kalm 3,0 1038,6 98 -
08:24 -1,2 -1,6 1,0 NE 2,0 1038,6 97 -
08:29 -1,3 -1,7 1,0 ENE 2,0 1038,6 97 -
08:34 -1,3 -1,7   Kalm   1038,6 97 -
08:39 -1,3 -1,7   Kalm   1038,6 97 -
08:44 -1,3 -1,6   Kalm   1038,9 98 -
08:49 -1,3 -1,6   Kalm   1038,9 98 -
08:54 -1,2 -1,5   Kalm   1038,9 98 -
08:59 -1,1 -1,4   Kalm   1038,9 98 -
09:04 -1,1 -1,4   Kalm   1038,9 98 -
09:09 -1,1 -1,4 1,0 ENE 3,0 1038,9 98 -
09:14 -1,1 -1,4   Kalm 3,0 1039,3 98 -
09:19 -1,2 -1,5 1,0 ENE 2,0 1039,3 98 -
09:24 -1,1 -1,4   Kalm 2,0 1039,3 98 -
09:29 -1,1 -1,4   Kalm   1039,3 98 -
09:34 -0,9 -1,2   Kalm 2,0 1039,3 98 -
09:39 -0,9 -1,2   Kalm   1039,3 98 -
09:44 -0,9 -1,2 2,0 East 2,0 1039,3 98 -
09:49 -0,8 -1,1   Kalm   1039,3 98 -
09:54 -0,7 -1,0   Kalm   1039,3 98 -
09:59 -0,6 -0,9   Kalm   1039,3 98 -
10:04 -0,6 -0,9   Kalm   1038,9 98 -
10:09 -0,5 -0,8   Kalm   1038,9 98 -
10:14 -0,4 -0,7   Kalm 2,0 1038,9 98 -
10:19 -0,3 -0,6   Kalm 2,0 1038,9 98 -
10:24 -0,1 -0,4   Kalm 2,0 1038,9 98 -
10:29 0,1 -0,2   Kalm   1038,9 98 -
10:34 0,1 -0,2   Kalm 2,0 1038,9 98 -
10:39 0,2 -0,1   Kalm 2,0 1038,9 98 -
10:44 0,2 -0,1   Kalm 2,0 1038,9 98 -
10:49 0,3 0,0   Kalm 2,0 1038,9 98 -
10:54 0,3 0,0   Kalm 2,0 1038,9 98 -
10:59 0,4 0,1   Kalm 2,0 1038,9 98 -
11:04 0,4 0,1   Kalm 2,0 1038,9 98 -
11:09 0,5 0,2   Kalm 2,0 1038,6 98 -
11:14 0,7 0,4   Kalm 2,0 1038,6 98 -
11:19 0,7 0,4   Kalm 2,0 1038,6 98 -
11:24 0,8 0,5   Kalm   1038,6 98 -
11:29 0,9 0,6   Kalm   1038,9 98 -
11:34 0,9 0,6   Kalm   1038,9 98 -
11:39 1,1 0,8   Kalm   1038,9 98 -
11:44 1,1 0,8   Kalm   1038,9 98 -
11:49 1,1 0,8   Kalm 2,0 1038,9 98 -
11:54 1,1 0,8   Kalm 2,0 1038,9 98 -
11:59 0,9 0,6 1,0 West 2,0 1038,9 98 -
12:04 0,9 0,5 1,0 WSW 2,0 1038,9 97 -
12:09 1,1 0,8   Kalm 2,0 1038,9 98 -
12:14 1,2 0,9   Kalm 2,0 1038,6 98 -
12:19 1,2 0,9   Kalm 2,0 1038,6 98 -
12:24 1,3 1,0   Kalm   1038,6 98 -
12:29 1,4 1,1   Kalm 2,0 1038,6 98 -
12:34 1,5 1,1   Kalm 2,0 1038,3 98 -
12:39 1,7 1,4   Kalm   1038,3 98 -
12:44 1,9 1,6   Kalm 2,0 1038,3 98 -
12:49 1,9 1,6   Kalm 2,0 1038,3 98 -
12:54 2,2 1,9   Kalm   1038,3 98 -
12:59 2,3 2,0   Kalm   1038,3 98 -
13:04 2,3 2,0   Kalm   1038,3 98 -
13:09 2,3 1,9   Kalm   1038,3 97 -
13:14 2,4 2,0   Kalm   1038,3 97 -
13:19 2,4 2,0   Kalm   1038,3 97 -
13:24 2,4 2,0   Kalm   1038,3 97 -
13:29 2,6 2,2   Kalm   1037,9 97 -
13:34 2,7 2,3   Kalm   1037,9 97 -
13:39 2,8 2,4   Kalm   1037,9 97 -
13:44 2,9 2,5   Kalm   1037,9 97 -
13:48 3,0 2,6   Kalm   1037,9 97 -
13:54 3,2 2,8   Kalm   1037,9 97 -
13:59 3,3 2,9   Kalm   1037,9 97 -
14:04 3,4 2,9   Kalm   1037,9 97 0,25
14:09 3,5 2,9   Kalm   1037,6 96 0,25
14:14 3,6 3,0   Kalm   1037,6 96 0,25
14:19 3,7 3,1   Kalm   1037,6 96 0,25
14:24 3,8 3,1   Kalm   1037,6 95 0,25
14:29 3,8 3,1   Kalm   1037,6 95 0,25
14:34 3,8 2,9   Kalm   1037,6 94 0,25
14:39 3,7 2,7   Kalm   1037,6 93 0,25
14:44 3,8 2,8   Kalm   1037,6 93 0,25
14:48 3,9 2,9   Kalm   1037,6 93 0,25
14:54 4,1 3,0   Kalm   1037,6 93 0,25
14:59 4,1 2,9   Kalm   1037,6 92 0,25
15:04 4,2 3,0   Kalm   1037,3 92 0,25
15:09 4,2 3,0   Kalm   1037,3 92 -
15:14 4,3 3,1   Kalm   1037,3 92 -
15:19 4,3 3,0   Kalm   1037,3 91 -
15:24 4,4 3,1   Kalm   1037,3 91 -
15:29 4,4 3,1   Kalm   1037,3 91 -
15:34 4,4 2,9   Kalm   1037,3 90 -
Daily Summary for Wednesday Jan 22 2020
Time Temp. ( °C ) Dew pt. ( °C ) Wind ( km/h ) From Gust ( km/h ) Pressure ( hPa ) Humid.( % ) Rainrate ( cm )
High4,4 3,1 8,0 East ( 20/44 ) 10,0 1040,6 98 0,25
Average-0,1 -0,5 0,2 Kalm #167/187 1,0 1038,9 97 0,50
Low-2,2 -2,6 -   0,0 1037,3 90 -
Daily Tabular details for Wednesday Jan 22 2020
Time Temp. ( °C ) Dew pt. ( °C ) Wind ( km/h ) From Gust ( km/h ) Pressure ( hPa ) Humid.( % ) Rainrate ( cm )
00:04 -1,6 -2,0   Kalm 2,0 1040,3 97 -
00:09 -1,6 -2,0   Kalm 2,0 1040,3 97 -
00:14 -1,6 -2,0 1,0 West 2,0 1040,0 97 -
00:19 -1,5 -1,9   Kalm 2,0 1040,0 97 -
00:24 -1,6 -2,0 1,0 West 2,0 1040,3 97 -
00:29 -1,7 -2,1   Kalm 2,0 1040,6 97 -
00:34 -1,7 -2,1   Kalm 2,0 1040,3 97 -
00:39 -1,7 -2,1   Kalm 2,0 1040,3 97 -
00:44 -1,7 -2,1 1,0 ESE 3,0 1040,3 97 -
00:49 -1,7 -2,1 3,0 North 6,0 1040,6 97 -
00:54 -1,8 -2,2 6,0 East 8,0 1040,6 97 -
00:59 -2,1 -2,5 8,0 ENE 10,0 1040,6 97 -
01:04 -2,1 -2,5   Kalm 6,0 1040,6 97 -
01:09 -2,2 -2,6   Kalm 3,0 1040,6 97 -
01:14 -2,1 -2,5 3,0 East 10,0 1040,6 97 -
01:19 -2,2 -2,6 3,0 East 5,0 1040,6 97 -
01:24 -2,1 -2,5 3,0 East 6,0 1040,3 97 -
01:29 -2,1 -2,5   Kalm 6,0 1040,3 97 -
01:34 -2,1 -2,5 1,0 ENE 2,0 1040,3 97 -
01:39 -2,1 -2,5 1,0 West 3,0 1040,3 97 -
01:44 -2,2 -2,6 3,0 East 3,0 1040,0 97 -
01:49 -2,2 -2,6   Kalm 2,0 1040,0 97 -
01:54 -2,1 -2,5   Kalm   1040,0 97 -
01:59 -2,0 -2,4   Kalm 2,0 1040,0 97 -
02:04 -1,9 -2,3   Kalm   1040,0 97 -
02:09 -1,8 -2,2   Kalm   1040,0 97 -
02:14 -1,8 -2,2   Kalm   1040,0 97 -
02:19 -1,7 -2,1 2,0 WNW 2,0 1040,0 97 -
02:24 -1,7 -2,0   Kalm 2,0 1040,0 98 -
02:29 -1,7 -2,1   Kalm 2,0 1040,0 97 -
02:34 -1,6 -2,0   Kalm   1040,0 97 -
02:39 -1,6 -2,0   Kalm   1040,0 97 -
02:44 -1,6 -2,0   Kalm   1040,0 97 -
02:49 -1,5 -1,9   Kalm   1040,0 97 -
02:54 -1,4 -1,8   Kalm   1040,0 97 -
02:59 -1,3 -1,6   Kalm   1040,0 98 -
03:04 -1,3 -1,6   Kalm   1040,0 98 -
03:09 -1,2 -1,5   Kalm 2,0 1040,0 98 -
03:14 -1,2 -1,5   Kalm 2,0 1039,6 98 -
03:19 -1,1 -1,4   Kalm   1039,6 98 -
03:24 -1,1 -1,4   Kalm   1039,6 98 -
03:29 -1,1 -1,4   Kalm   1039,3 98 -
03:34 -1,0 -1,3   Kalm   1039,3 98 -
03:39 -1,0 -1,3   Kalm   1039,3 98 -
03:44 -1,0 -1,3   Kalm   1039,6 98 -
03:49 -1,1 -1,5   Kalm   1039,6 97 -
03:54 -1,1 -1,5   Kalm   1039,6 97 -
03:59 -1,1 -1,5   Kalm   1039,6 97 -
04:04 -1,1 -1,5   Kalm   1039,3 97 -
04:09 -1,1 -1,5   Kalm   1039,3 97 -
04:14 -1,0 -1,4   Kalm   1039,3 97 -
04:19 -1,0 -1,4   Kalm   1039,3 97 -
04:24 -1,0 -1,4   Kalm   1039,3 97 -
04:29 -1,0 -1,4   Kalm   1038,9 97 -
04:34 -0,9 -1,3   Kalm   1039,3 97 -
04:39 -1,0 -1,4   Kalm   1039,3 97 -
04:44 -1,1 -1,5   Kalm   1039,3 97 -
04:49 -1,0 -1,4   Kalm   1038,9 97 -
04:54 -0,9 -1,3   Kalm   1038,9 97 -
04:59 -0,9 -1,2   Kalm   1038,9 98 -
05:04 -0,9 -1,2   Kalm   1038,9 98 -
05:09 -0,9 -1,2   Kalm   1038,9 98 -
05:14 -0,9 -1,2   Kalm   1038,6 98 -
05:19 -0,8 -1,1   Kalm   1038,9 98 -
05:24 -0,8 -1,1   Kalm   1038,9 98 -
05:28 -0,8 -1,1   Kalm   1038,9 98 -
05:34 -0,9 -1,3   Kalm   1038,9 97 -
05:39 -0,9 -1,3   Kalm   1038,9 97 -
05:44 -0,9 -1,3   Kalm   1038,9 97 -
05:49 -1,0 -1,4   Kalm   1038,9 97 -
05:54 -1,0 -1,4   Kalm 3,0 1038,9 97 -
05:59 -1,1 -1,5   Kalm 3,0 1038,9 97 -
06:04 -1,1 -1,5   Kalm   1038,6 97 -
06:09 -1,1 -1,5   Kalm   1038,6 97 -
06:14 -1,1 -1,5   Kalm   1038,6 97 -
06:19 -1,1 -1,5   Kalm   1038,6 97 -
06:24 -1,1 -1,5   Kalm   1038,6 97 -
06:29 -1,1 -1,5   Kalm   1038,6 97 -
06:34 -1,1 -1,4   Kalm   1038,3 98 -
06:39 -1,1 -1,4   Kalm   1038,3 98 -
06:44 -1,1 -1,5   Kalm   1038,3 97 -
06:49 -1,2 -1,6   Kalm   1038,3 97 -
06:54 -1,2 -1,6   Kalm   1037,9 97 -
06:59 -1,1 -1,5   Kalm 2,0 1037,9 97 -
07:03 -1,1 -1,4   Kalm 2,0 1038,3 98 -
07:09 -1,1 -1,4   Kalm 2,0 1038,3 98 -
07:14 -1,1 -1,4   Kalm   1038,3 98 -
07:19 -1,1 -1,4   Kalm 2,0 1038,3 98 -
07:24 -1,1 -1,4   Kalm 2,0 1038,3 98 -
07:29 -1,1 -1,4   Kalm 2,0 1038,3 98 -
07:34 -1,1 -1,4   Kalm 2,0 1038,3 98 -
07:39 -1,1 -1,5   Kalm 2,0 1038,3 97 -
07:44 -1,2 -1,6   Kalm   1038,3 97 -
07:49 -1,2 -1,6   Kalm   1038,3 97 -
07:54 -1,1 -1,4   Kalm   1038,3 98 -
07:59 -1,1 -1,4   Kalm   1038,3 98 -
08:04 -1,1 -1,4   Kalm   1037,9 98 -
08:09 -1,1 -1,4   Kalm   1038,3 98 -
08:14 -1,1 -1,4   Kalm 3,0 1038,3 98 -
08:19 -1,1 -1,4   Kalm 3,0 1038,6 98 -
08:24 -1,2 -1,6 1,0 NE 2,0 1038,6 97 -
08:29 -1,3 -1,7 1,0 ENE 2,0 1038,6 97 -
08:34 -1,3 -1,7   Kalm   1038,6 97 -
08:39 -1,3 -1,7   Kalm   1038,6 97 -
08:44 -1,3 -1,6   Kalm   1038,9 98 -
08:49 -1,3 -1,6   Kalm   1038,9 98 -
08:54 -1,2 -1,5   Kalm   1038,9 98 -
08:59 -1,1 -1,4   Kalm   1038,9 98 -
09:04 -1,1 -1,4   Kalm   1038,9 98 -
09:09 -1,1 -1,4 1,0 ENE 3,0 1038,9 98 -
09:14 -1,1 -1,4   Kalm 3,0 1039,3 98 -
09:19 -1,2 -1,5 1,0 ENE 2,0 1039,3 98 -
09:24 -1,1 -1,4   Kalm 2,0 1039,3 98 -
09:29 -1,1 -1,4   Kalm   1039,3 98 -
09:34 -0,9 -1,2   Kalm 2,0 1039,3 98 -
09:39 -0,9 -1,2   Kalm   1039,3 98 -
09:44 -0,9 -1,2 2,0 East 2,0 1039,3 98 -
09:49 -0,8 -1,1   Kalm   1039,3 98 -
09:54 -0,7 -1,0   Kalm   1039,3 98 -
09:59 -0,6 -0,9   Kalm   1039,3 98 -
10:04 -0,6 -0,9   Kalm   1038,9 98 -
10:09 -0,5 -0,8   Kalm   1038,9 98 -
10:14 -0,4 -0,7   Kalm 2,0 1038,9 98 -
10:19 -0,3 -0,6   Kalm 2,0 1038,9 98 -
10:24 -0,1 -0,4   Kalm 2,0 1038,9 98 -
10:29 0,1 -0,2   Kalm   1038,9 98 -
10:34 0,1 -0,2   Kalm 2,0 1038,9 98 -
10:39 0,2 -0,1   Kalm 2,0 1038,9 98 -
10:44 0,2 -0,1   Kalm 2,0 1038,9 98 -
10:49 0,3 0,0   Kalm 2,0 1038,9 98 -
10:54 0,3 0,0   Kalm 2,0 1038,9 98 -
10:59 0,4 0,1   Kalm 2,0 1038,9 98 -
11:04 0,4 0,1   Kalm 2,0 1038,9 98 -
11:09 0,5 0,2   Kalm 2,0 1038,6 98 -
11:14 0,7 0,4   Kalm 2,0 1038,6 98 -
11:19 0,7 0,4   Kalm 2,0 1038,6 98 -
11:24 0,8 0,5   Kalm   1038,6 98 -
11:29 0,9 0,6   Kalm   1038,9 98 -
11:34 0,9 0,6   Kalm   1038,9 98 -
11:39 1,1 0,8   Kalm   1038,9 98 -
11:44 1,1 0,8   Kalm   1038,9 98 -
11:49 1,1 0,8   Kalm 2,0 1038,9 98 -
11:54 1,1 0,8   Kalm 2,0 1038,9 98 -
11:59 0,9 0,6 1,0 West 2,0 1038,9 98 -
12:04 0,9 0,5 1,0 WSW 2,0 1038,9 97 -
12:09 1,1 0,8   Kalm 2,0 1038,9 98 -
12:14 1,2 0,9   Kalm 2,0 1038,6 98 -
12:19 1,2 0,9   Kalm 2,0 1038,6 98 -
12:24 1,3 1,0   Kalm   1038,6 98 -
12:29 1,4 1,1   Kalm 2,0 1038,6 98 -
12:34 1,5 1,1   Kalm 2,0 1038,3 98 -
12:39 1,7 1,4   Kalm   1038,3 98 -
12:44 1,9 1,6   Kalm 2,0 1038,3 98 -
12:49 1,9 1,6   Kalm 2,0 1038,3 98 -
12:54 2,2 1,9   Kalm   1038,3 98 -
12:59 2,3 2,0   Kalm   1038,3 98 -
13:04 2,3 2,0   Kalm   1038,3 98 -
13:09 2,3 1,9   Kalm   1038,3 97 -
13:14 2,4 2,0   Kalm   1038,3 97 -
13:19 2,4 2,0   Kalm   1038,3 97 -
13:24 2,4 2,0   Kalm   1038,3 97 -
13:29 2,6 2,2   Kalm   1037,9 97 -
13:34 2,7 2,3   Kalm   1037,9 97 -
13:39 2,8 2,4   Kalm   1037,9 97 -
13:44 2,9 2,5   Kalm   1037,9 97 -
13:48 3,0 2,6   Kalm   1037,9 97 -
13:54 3,2 2,8   Kalm   1037,9 97 -
13:59 3,3 2,9   Kalm   1037,9 97 -
14:04 3,4 2,9   Kalm   1037,9 97 0,25
14:09 3,5 2,9   Kalm   1037,6 96 0,25
14:14 3,6 3,0   Kalm   1037,6 96 0,25
14:19 3,7 3,1   Kalm   1037,6 96 0,25
14:24 3,8 3,1   Kalm   1037,6 95 0,25
14:29 3,8 3,1   Kalm   1037,6 95 0,25
14:34 3,8 2,9   Kalm   1037,6 94 0,25
14:39 3,7 2,7   Kalm   1037,6 93 0,25
14:44 3,8 2,8   Kalm   1037,6 93 0,25
14:48 3,9 2,9   Kalm   1037,6 93 0,25
14:54 4,1 3,0   Kalm   1037,6 93 0,25
14:59 4,1 2,9   Kalm   1037,6 92 0,25
15:04 4,2 3,0   Kalm   1037,3 92 0,25
15:09 4,2 3,0   Kalm   1037,3 92 -
15:14 4,3 3,1   Kalm   1037,3 92 -
15:19 4,3 3,0   Kalm   1037,3 91 -
15:24 4,4 3,1   Kalm   1037,3 91 -
15:29 4,4 3,1   Kalm   1037,3 91 -
15:34 4,4 2,9   Kalm   1037,3 90 -

Download your copy of this data-set  from WeatherUnderground

Our weather-data as stored at Weather Underground. Original script b Jim McMurry. Rewritten for template use Leuven-Template